TimeEDT,TemperatureF,Dew PointF,Humidity,Sea Level PressureIn,VisibilityMPH,Wind Direction,Wind SpeedMPH,Gust SpeedMPH,PrecipitationIn,Events,Conditions,WindDirDegrees,DateUTC
12:54 AM,51.1,21.0,31,30.32,10.0,South,5.8,-,N/A,,Clear,180,2012-03-12 04:54:00
1:54 AM,51.1,21.0,31,30.30,10.0,SSW,4.6,-,N/A,,Clear,200,2012-03-12 05:54:00
2:54 AM,45.0,24.1,44,30.31,10.0,SW,5.8,-,N/A,,Clear,230,2012-03-12 06:54:00
3:54 AM,46.0,21.9,39,30.28,10.0,SW,4.6,-,N/A,,Clear,220,2012-03-12 07:54:00
4:54 AM,48.0,21.0,34,30.27,10.0,SSW,4.6,-,N/A,,Clear,200,2012-03-12 08:54:00
5:54 AM,46.0,21.9,39,30.28,10.0,South,5.8,-,N/A,,Clear,190,2012-03-12 09:54:00
6:54 AM,46.9,21.0,36,30.29,10.0,South,5.8,-,N/A,,Clear,190,2012-03-12 10:54:00
7:54 AM,48.0,21.9,36,30.28,10.0,South,5.8,-,N/A,,Clear,180,2012-03-12 11:54:00
8:54 AM,48.9,25.0,39,30.28,10.0,SSW,4.6,-,N/A,,Clear,210,2012-03-12 12:54:00
9:54 AM,52.0,25.0,35,30.28,10.0,SSW,5.8,-,N/A,,Clear,200,2012-03-12 13:54:00
10:54 AM,57.0,27.0,32,30.26,10.0,South,9.2,-,N/A,,Clear,180,2012-03-12 14:54:00
11:54 AM,61.0,28.9,30,30.24,10.0,WSW,5.8,-,N/A,,Clear,250,2012-03-12 15:54:00
12:54 PM,63.0,27.0,26,30.22,10.0,SW,10.4,-,N/A,,Clear,220,2012-03-12 16:54:00
1:54 PM,64.0,28.9,27,30.19,10.0,WSW,6.9,-,N/A,,Clear,240,2012-03-12 17:54:00
2:54 PM,61.0,33.1,35,30.18,10.0,WNW,10.4,-,0.00,Rain,Light Rain,290,2012-03-12 18:54:00
3:54 PM,57.0,37.0,47,30.17,10.0,WSW,8.1,-,0.00,Rain,Light Rain,250,2012-03-12 19:54:00
4:54 PM,51.1,46.9,86,30.18,4.0,SW,8.1,-,0.04,Rain,Rain,220,2012-03-12 20:54:00
5:09 PM,48.2,46.4,93,30.17,2.5,SW,6.9,-,0.05,Rain,Rain,230,2012-03-12 21:09:00
5:13 PM,48.2,46.4,93,30.17,3.0,SSW,9.2,-,0.05,Rain,Rain,200,2012-03-12 21:13:00
5:54 PM,51.1,48.9,92,30.17,9.0,SSW,6.9,-,0.09,Rain,Light Rain,200,2012-03-12 21:54:00
6:14 PM,50.0,48.2,94,30.15,2.5,SSW,8.1,-,0.02,Rain,Light Rain,210,2012-03-12 22:14:00
6:27 PM,50.0,48.2,94,30.15,4.0,SW,5.8,-,0.02,Rain,Light Rain,220,2012-03-12 22:27:00
6:37 PM,50.0,48.2,94,30.15,2.5,SW,5.8,-,0.03,Rain,Light Rain,220,2012-03-12 22:37:00
6:43 PM,50.0,48.2,94,30.15,1.5,SW,10.4,17.3,0.03,Rain,Light Rain,220,2012-03-12 22:43:00
6:54 PM,50.0,50.0,100,30.16,2.0,South,10.4,-,0.04,Rain,Light Rain,190,2012-03-12 22:54:00
7:11 PM,50.0,48.2,94,30.14,4.0,South,12.7,-,0.00,Rain,Light Rain,180,2012-03-12 23:11:00
7:54 PM,51.1,48.0,89,30.14,10.0,South,11.5,19.6,0.01,,Overcast,180,2012-03-12 23:54:00
8:36 PM,50.0,48.2,94,30.12,7.0,SSW,8.1,-,0.00,Rain,Light Rain,200,2012-03-13 00:36:00
8:54 PM,50.0,48.9,96,30.13,9.0,SSW,6.9,-,0.00,Rain,Light Rain,200,2012-03-13 00:54:00
9:05 PM,50.0,48.2,94,30.11,4.0,SSW,5.8,-,0.00,Rain,Light Rain,200,2012-03-13 01:05:00
9:10 PM,50.0,48.2,94,30.11,6.0,SSW,6.9,-,0.01,Rain,Light Rain,210,2012-03-13 01:10:00
9:54 PM,51.1,50.0,96,30.11,3.0,South,6.9,-,0.03,Rain,Rain,190,2012-03-13 01:54:00
10:54 PM,52.0,51.1,97,30.09,10.0,SSW,10.4,-,0.03,,Overcast,210,2012-03-13 02:54:00
11:04 PM,51.8,51.8,100,30.09,10.0,SSW,9.2,-,N/A,,Overcast,210,2012-03-13 03:04:00
11:54 PM,53.1,51.1,93,30.07,10.0,SSW,12.7,17.3,N/A,,Mostly Cloudy,210,2012-03-13 03:54:00